Location: A�t Lahcen
(32.8243°N, 5.4246°W)
Time: 00:20:55
(UTC+00:00)

CZ-4B R/B - Pass Details

Date: 27 January 2021
Orbit: 486 x 652 km, 97.9° (Epoch: 27 February)

Event Time Altitude Azimuth Distance (km) Brightness Sun altitude
Rises 05:09:53 0° 22° (NNE) 2,603 6.5 -27.3°
Reaches altitude 10° 05:12:03 10° 31° (NNE) 1,734 5.6 -26.8°
Maximum altitude 05:15:30 36° 99° (E) 843 4.2 -26.1°
Drops below altitude 10° 05:19:06 10° 167° (SSE) 1,800 5.6 -25.4°
Sets 05:21:23 0° 176° (S) 2,719 6.5 -24.9°
